This is the latest recevied weather packets stored in our database for station/object OE5MMP-13. If no packets are shown the sender has not sent any weather packets the latest 10 day(s).
| Time | Temp. | Humidity | Pressure | Rain* | Wind** | Luminosity | Snow |
|---|---|---|---|---|---|---|---|
| 1788227610 | 15.56° C | 72% | 1022.2 hPa | 0 mm | - | 0 W/m² | - |
| 1788227009 | 15.56° C | 72% | 1022.1 hPa | 0 mm | - | 0 W/m² | - |
| 1788226410 | 15.56° C | 73% | 1022.1 hPa | 0 mm | - | 0 W/m² | - |
| 1788225810 | 15.56° C | 72% | 1022.1 hPa | 0 mm | - | 0 W/m² | - |
| 1788225209 | 16.11° C | 71% | 1022.2 hPa | 0 mm | - | 0 W/m² | - |
| 1788224610 | 16.11° C | 71% | 1022.1 hPa | 0 mm | - | 0 W/m² | - |
| 1788224010 | 16.11° C | 71% | 1022.3 hPa | 0 mm | - | 0 W/m² | - |
| 1788223410 | 17.22° C | 68% | 1022.2 hPa | 0 mm | - | 0 W/m² | - |
| 1788222810 | 17.22° C | 67% | 1022.1 hPa | 0 mm | - | 0 W/m² | - |
| 1788222209 | 17.22° C | 67% | 1022 hPa | 0 mm | - | 0 W/m² | - |
| 1788221610 | 17.78° C | 66% | 1021.8 hPa | 0 mm | - | 0 W/m² | - |
| 1788221009 | 17.78° C | 65% | 1021.9 hPa | 0 mm | - | 0 W/m² | - |
| 1788220409 | 17.78° C | 64% | 1021.8 hPa | 0 mm | - | 0 W/m² | - |
| 1788219809 | 18.33° C | 64% | 1021.9 hPa | 0 mm | - | 0 W/m² | - |
| 1788219209 | 18.33° C | 64% | 1021.7 hPa | 0 mm | - | 0 W/m² | - |
| 1788218610 | 18.33° C | 66% | 1021.6 hPa | 0 mm | - | 0 W/m² | - |
| 1788218010 | 18.33° C | 66% | 1021.5 hPa | 0 mm | - | 0 W/m² | - |
| 1788217409 | 18.33° C | 65% | 1021.4 hPa | 0 mm | - | 0 W/m² | - |
| 1788216809 | 18.33° C | 65% | 1021.5 hPa | 0 mm | - | 0 W/m² | - |
| 1788216209 | 18.33° C | 65% | 1021.4 hPa | 0 mm | - | 0 W/m² | - |
| 1788215609 | 18.33° C | 65% | 1021.4 hPa | 0 mm | - | 0 W/m² | - |
| 1788215009 | 18.33° C | 67% | 1021.3 hPa | 0 mm | - | 0 W/m² | - |
| 1788214409 | 17.78° C | 68% | 1021.2 hPa | 0 mm | - | 0 W/m² | - |
| 1788213809 | 18.33° C | 67% | 1021 hPa | 0 mm | - | 0 W/m² | - |
| 1788213220 | 17.78° C | 67% | 1020.8 hPa | 0 mm | - | 0 W/m² | - |
* Rain latest hour (hover to see other rain measurements)
** Current wind speed in m/s (hover to see current wind gust speed)